• Processing (Info)

  • MPEC 2020-W13 : 2020 VY5

    The following Minor Planet Electronic Circular may be linked-to from your own Web pages, but must not otherwise be redistributed electronically.

    A form allowing access to any MPEC is at the bottom of this page.


    Read MPEC 2020-W12 Read MPEC 2020-W14


    M.P.E.C. 2020-W13                             Issued 2020 November 16, 13:35 UT
    
         The Minor Planet Electronic Circulars contain information on unusual
             minor planets and routine data on comets.  They are published
        on behalf of Division F of the International Astronomical Union by the
              Minor Planet Center, Smithsonian Astrophysical Observatory,
                              Cambridge, MA 02138, U.S.A.
    
                 Prepared using the Tamkin Foundation Computer Network
    
                                  MPC@CFA.HARVARD.EDU
                URL https://www.minorplanetcenter.net/    ISSN 1523-6714
    
                                    2020 VY5                                 
    
    
    Observations:
         K20V05Y* C2020 11 13.55456004 42 04.513+15 34 40.58         21.79wUEW013F51
         K20V05Y  C2020 11 13.56585004 42 06.506+15 34 47.21         21.78wUEW013F51
         K20V05Y  C2020 11 13.57715704 42 08.516+15 34 53.59         21.69wUEW013F51
         K20V05Y KC2020 11 14.25868004 44 24.77 +15 41 47.1          21.43GVEW013V06
         K20V05Y KC2020 11 14.26046304 44 25.13 +15 41 48.0          21.43GVEW013V06
         K20V05Y KC2020 11 14.26224504 44 25.44 +15 41 49.2          21.30GVEW013V06
         K20V05Y KC2020 11 14.26402404 44 25.74 +15 41 50.4          21.06GVEW013V06
         K20V05Y  C2020 11 14.31883704 44 35.43 +15 42 26.5          21.20GVEW013G96
         K20V05Y  C2020 11 14.32398904 44 36.37 +15 42 28.8          21.50GVEW013G96
         K20V05Y  C2020 11 14.32914504 44 37.29 +15 42 32.7          21.48GVEW013G96
         K20V05Y 1C2020 11 14.94016 04 46 36.03 +15 48 37.4          22.1 VVEW013033
         K20V05Y 1C2020 11 14.94375 04 46 36.71 +15 48 39.4          22.6 VVEW013033
         K20V05Y 1C2020 11 14.95502 04 46 38.80 +15 48 47.4          22.4 VVEW013033
         K20V05Y KC2020 11 16.23463104 50 44.13 +16 02 13.2          22.0 VuEW013H21
         K20V05Y KC2020 11 16.24346304 50 45.65 +16 02 18.9          21.8 VuEW013H21
         K20V05Y KC2020 11 16.39375904 51 12.72 +16 03 59.0          21.39GVEW013V06
         K20V05Y KC2020 11 16.39875 04 51 13.61 +16 04 02.0          22.5 RoEW013291
         K20V05Y KC2020 11 16.41039 04 51 15.64 +16 04 10.0                oEW013291
         K20V05Y KC2020 11 16.41244004 51 15.93 +16 04 10.5          21.45GVEW013V06
         K20V05Y KC2020 11 16.41481504 51 16.33 +16 04 11.8          21.06GVEW013V06
         K20V05Y KC2020 11 16.41719104 51 16.72 +16 04 12.8          21.22GVEW013V06
         K20V05Y KC2020 11 16.42203 04 51 17.69 +16 04 15.4                oEW013291
    
    Observer details:
    033 Karl Schwarzschild Observatory, Tautenburg.  Observers S. Melnikov, F.
        Ludwig, B. Stecklum.  Measurer B. Stecklum.  1.34-m f/3 Schmidt + CCD.
    291 LPL/Spacewatch II.  Observer A. F. Tubbiolo.  1.8-m f/2.7 reflector + CCD.
    F51 Pan-STARRS 1, Haleakala.  Observers J. Bulger, T. Lowe, A. Schultz, M.
        Willman.  Measurers K. Chambers, S. Chastel, T. de Boer, L. Denneau, J.
        Fairlamb, H. Flewelling, M. Huber, C.-C. Lin, E. Magnier, Y. Ramanjooloo,
        R. Wainscoat, R. Weryk.  1.8-m Ritchey-Chretien + CCD.
    G96 Mt. Lemmon Survey.  Observer D. Rankin.  Measurers E. J. Christensen, G.
        A. Farneth, D. C. Fuls, A. R. Gibbs, A. D. Grauer, H. Groeller, R. A.
        Kowalski, S. M. Larson, G. J. Leonard, T. A. Pruyne, D. Rankin, R. L.
        Seaman, F. C. Shelly, K. W. Wierzchos.  1.5-m reflector + 10K CCD.
    H21 Astronomical Research Observatory, Westfield.  Observer R. Holmes.
        Measurers S. Foglia, L. Buzzi, T. Linder, R. Holmes.  0.76-m f/3.0
        astrograph + CCD.
    V06 Catalina Sky Survey-Kuiper.  Observer T. A. Pruyne.  Measurers E. J.
        Christensen, G. A. Farneth, D. C. Fuls, A. R. Gibbs, A. D. Grauer, H.
        Groeller, R. A. Kowalski, S. M. Larson, G. J. Leonard, T. A. Pruyne, D.
        Rankin, R. L. Seaman, F. C. Shelly, K. W. Wierzchos.  1.55-m reflector +
        1K CCD.
    
    Orbital elements:
    2020 VY5                                                 Earth MOID = 0.1648 AU
    Epoch 2020 Dec. 17.0 TT = JDT 2459200.5                 Veres
    M   8.09217              (2000.0)            P               Q
    n   0.29026521     Peri.  312.77935     +0.50506864     -0.86282652
    a   2.2591205      Node   106.87364     +0.79809429     +0.45769260
    e   0.4900674      Incl.    1.25038     +0.32855924     +0.21458769
    P   3.40           H   24.2           G   0.15           U   8
    Residuals in seconds of arc
    201113 F51  0.1+  0.1+    201114 G96  0.1-  0.7-    201116 291  0.1-  0.3-
    201113 F51  0.0   0.1+    201114 G96  0.1+  0.1-    201116 291  0.3+  0.7+
    201113 F51  0.0   0.0     201114 033  0.2-  0.1-    201116 V06  0.1-  0.5+
    201114 V06  0.5-  0.0     201114 033  0.3+  0.4-    201116 V06  0.2-  0.3+
    201114 V06  0.1+  0.2-    201114 033  1.2+  0.3+    201116 V06  0.5-  0.1-
    201114 V06  0.0   0.2-    201116 H21  0.1-  0.1-    201116 291  0.9+  0.8-
    201114 V06  0.3-  0.2-    201116 H21  0.3-  0.1-
    201114 G96  0.6-  0.3+    201116 V06  0.0   0.2+
    
    Ephemeris:
    2020 VY5                 a,e,i = 2.26, 0.49, 1                   q = 1.1520
    Date    TT    R. A. (2000) Decl.     Delta      r    Elong.  Phase     V
    2020 10 17    03 13 35.4 +11 20 09   0.2320  1.2094   154.0    21.2    22.5
    ...
    2020 11 01    04 00 15.8 +13 29 01   0.1900  1.1697   157.0    19.4    21.9
    ...
    2020 11 09    04 27 02.3 +14 48 01   0.1778  1.1576   158.3    18.4    21.7
    ...
    2020 11 15    04 46 46.4 +15 49 44   0.1731  1.1529   159.5    17.5    21.6
    2020 11 16    04 49 58.3 +16 00 07   0.1727  1.1525   159.7    17.3    21.6
    2020 11 17    04 53 08.1 +16 10 31   0.1724  1.1522   160.0    17.1    21.6
    ...
    2020 11 23    05 11 14.4 +17 12 49   0.1728  1.1528   161.7    15.6    21.6
    ...
    2020 12 01    05 32 21.9 +18 33 39   0.1789  1.1597   164.8    12.9    21.5
    ...
    2020 12 16    06 00 48.7 +20 48 13   0.2073  1.1904   173.5     5.4    21.6
    
    M. P. C. Staff               (C) Copyright 2020 MPC           M.P.E.C. 2020-W13
    


    Read MPEC 2020-W12 Read MPEC 2020-W14


    MPEC number:

    Enter an MPEC number in one of the following forms:

    • 1997-B01 (the full form)
    • J97B01 (the packed version of the full form)
    • B01 (the abbreviated form)